| time (UTC) | temp F | wind direction | speed MPH | gust MPH | rain 1hr in | rain 24hr in | rain mn in | humidity % | barometer mb |
| 20260504193901 | 61 | 288 | 4.0 | 6.0 | 0.00 | 0.00 | 0.00 | 43 | 997.5 |
| 20260504192902 | 62 | 277 | 5.0 | 7.0 | 0.00 | 0.00 | 0.00 | 44 | 997.4 |
| 20260504191902 | 62 | 278 | 6.0 | 8.0 | 0.00 | 0.00 | 0.00 | 43 | 997.4 |
| 20260504190902 | 62 | 287 | 3.0 | 4.0 | 0.00 | 0.00 | 0.00 | 40 | 997.2 |
| 20260504185933 | 62 | 271 | 5.0 | 7.0 | 0.00 | 0.00 | 0.00 | 38 | 997.0 |
| 20260504184902 | 64 | 264 | 6.0 | 8.0 | 0.00 | 0.00 | 0.00 | 40 | 996.8 |
| 20260504183901 | 63 | 265 | 5.0 | 7.0 | 0.00 | 0.00 | 0.00 | 41 | 996.8 |
| 20260504182932 | 63 | 300 | 2.0 | 4.0 | 0.00 | 0.00 | 0.00 | 41 | 996.7 |
| 20260504181903 | 63 | 276 | 6.0 | 8.0 | 0.00 | 0.00 | 0.00 | 43 | 996.5 |
| 20260504180901 | 63 | 271 | 4.0 | 6.0 | 0.00 | 0.00 | 0.00 | 43 | 996.3 |
| 20260504175902 | 63 | 272 | 5.0 | 7.0 | 0.00 | 0.00 | 0.00 | 43 | 996.3 |
| 20260504174903 | 62 | 268 | 5.0 | 7.0 | 0.00 | 0.00 | 0.00 | 42 | 996.3 |
| 20260504173902 | 62 | 276 | 5.0 | 7.0 | 0.00 | 0.00 | 0.00 | 41 | 996.2 |
| 20260504172902 | 62 | 275 | 7.0 | 10.0 | 0.00 | 0.00 | 0.00 | 42 | 996.1 |
| 20260504171902 | 62 | 272 | 7.0 | 9.0 | 0.00 | 0.00 | 0.00 | 43 | 995.9 |
| 20260504170903 | 62 | 288 | 5.0 | 8.0 | 0.00 | 0.00 | 0.00 | 43 | 996.0 |
| 20260504150901 | 60 | 279 | 2.0 | 3.0 | 0.00 | 0.00 | 0.00 | 44 | 995.7 |
| 20260504140902 | 60 | 265 | 4.0 | 6.0 | 0.00 | 0.00 | 0.00 | 50 | 995.3 |
| 20260504081902 | 54 | 211 | 2.0 | 4.0 | 0.00 | 0.00 | 0.00 | 54 | 996.1 |
| 20260504080932 | 54 | 184 | 1.0 | 3.0 | 0.00 | 0.00 | 0.00 | 54 | 996.1 |
| 20260504045902 | 55 | 210 | 1.0 | 2.0 | 0.00 | 0.00 | 0.00 | 50 | 999.8 |
| 20260504044932 | 55 | 213 | 2.0 | 2.0 | 0.00 | 0.00 | 0.00 | 50 | 999.9 |
| 20260504043902 | 55 | 214 | 1.0 | 2.0 | 0.00 | 0.00 | 0.00 | 50 | 1000.0 |
| 20260504042932 | 55 | 222 | 1.0 | 2.0 | 0.00 | 0.00 | 0.00 | 51 | 1000.2 |
| 20260504041902 | 56 | 229 | 1.0 | 2.0 | 0.00 | 0.00 | 0.00 | 50 | 1000.3 |
| 20260504040903 | 56 | 238 | 1.0 | 1.0 | 0.00 | 0.00 | 0.00 | 49 | 1000.5 |
| 20260504035902 | 56 | 240 | 1.0 | 2.0 | 0.00 | 0.00 | 0.00 | 47 | 1000.9 |
| 20260504034902 | 55 | 236 | 1.0 | 2.0 | 0.00 | 0.00 | 0.00 | 49 | 1001.1 |
| 20260504033902 | 56 | 245 | 0.0 | 0.0 | 0.00 | 0.00 | 0.00 | 50 | 1001.2 |
| 20260504032932 | 56 | 246 | 0.0 | 0.0 | 0.00 | 0.00 | 0.00 | 51 | 1001.4 |
| 20260504031902 | 56 | 242 | 0.0 | 0.0 | 0.00 | 0.00 | 0.00 | 49 | 1001.4 |
| 20260504030902 | 56 | 242 | 0.0 | 0.0 | 0.00 | 0.00 | 0.00 | 50 | 1001.6 |
| 20260504025903 | 56 | 242 | 0.0 | 0.0 | 0.00 | 0.00 | 0.00 | 49 | 1001.6 |
| 20260504025002 | 57 | 242 | 0.0 | 0.0 | 0.00 | 0.00 | 0.00 | 47 | 1001.6 |
| 20260504023902 | 57 | 238 | 0.0 | 0.0 | 0.00 | 0.00 | 0.00 | 48 | 1001.7 |
| 20260504022902 | 58 | 236 | 0.0 | 0.0 | 0.00 | 0.00 | 0.00 | 46 | 1001.7 |
| 20260504022002 | 59 | 248 | 0.0 | 0.0 | 0.00 | 0.00 | 0.00 | 44 | 1001.7 |
| 20260504020902 | 60 | 249 | 0.0 | 0.0 | 0.00 | 0.00 | 0.00 | 44 | 1001.6 |
| 20260504015902 | 61 | 255 | 0.0 | 0.0 | 0.00 | 0.00 | 0.00 | 42 | 1001.7 |
| 20260504014902 | 63 | 255 | 0.0 | 0.0 | 0.00 | 0.00 | 0.00 | 40 | 1001.7 |
| 20260504013902 | 64 | 255 | 1.0 | 2.0 | 0.00 | 0.00 | 0.00 | 35 | 1001.8 |
| 20260504012902 | 64 | 259 | 1.0 | 2.0 | 0.00 | 0.00 | 0.00 | 36 | 1001.8 |
| 20260504011902 | 65 | 262 | 1.0 | 2.0 | 0.00 | 0.00 | 0.00 | 35 | 1001.8 |
| 20260504010932 | 66 | 276 | 1.0 | 2.0 | 0.00 | 0.00 | 0.00 | 38 | 1001.9 |
| 20260504005902 | 66 | 270 | 1.0 | 2.0 | 0.00 | 0.00 | 0.00 | 35 | 1001.9 |
| 20260504004903 | 66 | 273 | 1.0 | 2.0 | 0.00 | 0.00 | 0.00 | 34 | 1002.0 |
| 20260504003902 | 66 | 265 | 1.0 | 2.0 | 0.00 | 0.00 | 0.00 | 36 | 1002.0 |
| 20260504002902 | 66 | 279 | 1.0 | 2.0 | 0.00 | 0.00 | 0.00 | 30 | 1002.0 |
| 20260504001902 | 67 | 270 | 0.0 | 0.0 | 0.00 | 0.00 | 0.00 | 32 | 1002.1 |
| 20260504000902 | 68 | 276 | 0.0 | 0.0 | 0.00 | 0.00 | 0.00 | 30 | 1002.1 |
| 20260503235902 | 68 | 268 | 2.0 | 3.0 | 0.00 | 0.00 | 0.00 | 30 | 1002.1 |
| 20260503234932 | 68 | 284 | 2.0 | 3.0 | 0.00 | 0.00 | 0.00 | 28 | 1002.1 |
| 20260503233902 | 69 | 276 | 2.0 | 3.0 | 0.00 | 0.00 | 0.00 | 30 | 1002.1 |
| 20260503232932 | 69 | 264 | 2.0 | 3.0 | 0.00 | 0.00 | 0.00 | 31 | 1002.2 |
| 20260503231902 | 69 | 283 | 2.0 | 3.0 | 0.00 | 0.00 | 0.00 | 27 | 1002.3 |
| 20260503230902 | 69 | 283 | 2.0 | 3.0 | 0.00 | 0.00 | 0.00 | 27 | 1002.4 |
| 20260503225902 | 69 | 251 | 3.0 | 4.0 | 0.00 | 0.00 | 0.00 | 27 | 1002.4 |
| 20260503224902 | 70 | 295 | 1.0 | 2.0 | 0.00 | 0.00 | 0.00 | 28 | 1002.5 |
| 20260503223932 | 69 | 280 | 1.0 | 3.0 | 0.00 | 0.00 | 0.00 | 29 | 1002.5 |
| 20260503222902 | 69 | 295 | 2.0 | 3.0 | 0.00 | 0.00 | 0.00 | 27 | 1002.6 |
| 20260503221902 | 70 | 286 | 2.0 | 3.0 | 0.00 | 0.00 | 0.00 | 28 | 1002.8 |
| 20260503220902 | 70 | 266 | 2.0 | 3.0 | 0.00 | 0.00 | 0.00 | 27 | 1002.7 |
| 20260503215902 | 70 | 277 | 2.0 | 3.0 | 0.00 | 0.00 | 0.00 | 27 | 1002.8 |
| 20260503214902 | 70 | 299 | 3.0 | 5.0 | 0.00 | 0.00 | 0.00 | 27 | 1002.8 |
| 20260503213932 | 70 | 286 | 2.0 | 3.0 | 0.00 | 0.00 | 0.00 | 26 | 1002.8 |
| 20260503212902 | 70 | 294 | 2.0 | 4.0 | 0.00 | 0.00 | 0.00 | 27 | 1002.9 |
| 20260503211902 | 70 | 282 | 2.0 | 3.0 | 0.00 | 0.00 | 0.00 | 28 | 1002.9 |
| 20260503210902 | 70 | 287 | 2.0 | 3.0 | 0.00 | 0.00 | 0.00 | 27 | 1002.9 |
| 20260503205901 | 70 | 283 | 1.0 | 2.0 | 0.00 | 0.00 | 0.00 | 27 | 1003.1 |
| 20260503204902 | 70 | 281 | 3.0 | 4.0 | 0.00 | 0.00 | 0.00 | 27 | 1003.0 |
| 20260503203902 | 70 | 266 | 1.0 | 2.0 | 0.00 | 0.00 | 0.00 | 28 | 1003.1 |
| 20260503202902 | 71 | 291 | 1.0 | 1.0 | 0.00 | 0.00 | 0.00 | 29 | 1003.3 |
| 20260503201932 | 70 | 283 | 2.0 | 3.0 | 0.00 | 0.00 | 0.00 | 29 | 1003.3 |
| 20260503200902 | 70 | 285 | 3.0 | 4.0 | 0.00 | 0.00 | 0.00 | 30 | 1003.3 |
| 20260503195902 | 70 | 281 | 4.0 | 6.0 | 0.00 | 0.00 | 0.00 | 32 | 1003.5 |
| 20260503194902 | 70 | 267 | 3.0 | 4.0 | 0.00 | 0.00 | 0.00 | 32 | 1003.6 |